Date String (YYYY-MM-DD hh:mm:ss) UTC,Instrument flags,absolute air pressure of the measurement (hPa),sample flow rate (lpm),inlet stack bypass flow (lpm),air temperature of the measurement (°C),ambient temperature measured by the external sensor (°C),aerosol sample conditioner tube jacket temperature (°C),OPC LED temperature (°C),internal box temperature (°C),relative humidity of the measurement (%),span deviation,mass concentration of particles derived from Lorenz-Mie calculation of OPC scattering (μg/m³),mass concentration of particles derived from Lorenz-Mie calculation of OPC scattering (μg/m³),mass concentration of particles derived from Lorenz-Mie calculation of OPC scattering (μg/m³)
DateTimeUTC,F1_M11,P_M11,Q1_M11,Q2_M11,T1_M11,T2_M11,T3_M11,T4_M11,T5_M11,U1_M11,ZSPAN_M11,X2_M11,X0_M11,X1_M11
2024-03-06 20:00:00,SystemResetWarning,0820.0,5.00,000.00,022.0,021.4,000.0,030.1,023.7,08.9,0000.0,0002.09,0008.11,0001.07
2024-03-06 20:01:00,SystemResetWarning,0819.9,5.00,000.00,022.0,021.4,000.0,030.1,023.7,08.8,0000.0,0002.19,0008.80,0001.19
2024-03-06 20:02:00,SystemResetWarning,0819.8,4.99,000.00,022.0,021.4,000.0,030.1,023.7,08.6,0000.0,0002.35,0008.86,0001.32
2024-03-06 20:03:00,SystemResetWarning,0819.9,5.00,000.00,022.0,021.4,000.0,030.1,023.7,09.1,0000.0,0002.52,0009.30,0001.44
2024-03-06 20:04:00,SystemResetWarning,0819.8,5.00,000.00,022.0,021.4,000.0,030.1,023.7,09.3,0000.0,0002.64,0009.41,0001.56
2024-03-06 20:05:00,SystemResetWarning,0820.1,5.01,000.00,022.0,021.4,000.0,030.1,023.7,09.1,0000.0,0002.68,0009.08,0001.63
2024-03-06 20:06:00,SystemResetWarning,0819.8,5.01,000.00,022.0,021.4,000.0,030.1,023.7,09.2,0000.0,0002.79,0008.80,0001.70
2024-03-06 20:07:00,SystemResetWarning,0819.6,5.00,000.00,022.0,021.4,000.0,030.1,023.7,08.9,0000.0,0003.01,0009.96,0001.79
2024-03-06 20:08:00,SystemResetWarning,0819.8,4.99,000.00,022.0,021.4,000.0,030.1,023.7,08.6,0000.0,0003.14,0010.19,0001.84
2024-03-06 20:09:00,SystemResetWarning,0819.5,5.00,000.00,022.0,021.4,000.0,030.2,023.7,08.6,0000.0,0003.22,0010.76,0001.94
2024-03-06 20:10:00,SystemResetWarning,0819.5,5.01,000.00,022.0,021.4,000.0,030.2,023.7,08.4,0000.0,0003.22,0010.46,0002.02
2024-03-06 20:11:00,SystemResetWarning,0819.5,5.01,000.00,022.0,021.4,000.0,030.2,023.7,08.6,0000.0,0003.24,0010.26,0002.01
2024-03-06 20:12:00,SystemResetWarning,0820.0,5.01,000.00,022.0,021.4,000.0,030.2,023.7,08.7,0000.0,0003.17,0009.54,0001.90
2024-03-06 20:13:00,SystemResetWarning,0819.7,4.99,000.00,022.1,021.4,000.0,030.2,023.7,08.7,0000.0,0003.07,0008.93,0001.76
2024-03-06 20:14:00,SystemResetWarning,0819.6,5.00,000.00,022.1,021.4,000.0,030.2,023.7,08.9,0000.0,0002.98,0008.60,0001.64
2024-03-06 20:15:00,SystemResetWarning,0820.1,5.00,000.00,022.1,021.4,000.0,030.2,023.7,08.8,0000.0,0002.92,0008.59,0001.52
2024-03-06 20:16:00,SystemResetWarning,0820.0,5.00,000.00,022.1,021.4,000.0,030.2,023.7,09.1,0000.0,0002.86,0008.57,0001.46
2024-03-06 20:17:00,SystemResetWarning,0819.6,4.99,000.00,022.1,021.4,000.0,030.2,023.7,09.2,0000.0,0002.77,0008.48,0001.38
2024-03-06 20:18:00,SystemResetWarning,0820.0,5.00,000.00,022.1,021.4,000.0,030.2,023.7,09.0,0000.0,0002.61,0007.60,0001.29
2024-03-06 20:19:00,SystemResetWarning,0819.7,5.01,000.00,022.1,021.4,000.0,030.2,023.7,09.5,0000.0,0002.44,0007.32,0001.20
2024-03-06 20:20:00,SystemResetWarning,0819.7,5.01,000.00,022.1,021.4,000.0,030.2,023.7,09.7,0000.0,0002.26,0006.66,0001.09
2024-03-06 20:21:00,SystemResetWarning,0819.8,4.99,000.00,022.1,021.4,000.0,030.2,023.7,09.4,0000.0,0002.11,0005.21,0000.98
2024-03-06 20:22:00,SystemResetWarning,0819.9,4.99,000.00,022.1,021.4,000.0,030.2,023.8,09.2,0000.0,0001.91,0004.77,0000.88
2024-03-06 20:23:00,SystemResetWarning,0819.9,5.01,000.00,022.1,021.5,000.0,030.2,023.8,09.3,0000.0,0001.84,0004.59,0000.84
2024-03-06 20:24:00,SystemResetWarning,0819.8,5.01,000.00,022.1,021.5,000.0,030.2,023.8,09.0,0000.0,0001.84,0004.86,0000.83
2024-03-06 20:25:00,SystemResetWarning,0819.8,5.00,000.00,022.1,021.5,000.0,030.2,023.8,09.0,0000.0,0001.79,0005.13,0000.82
2024-03-06 20:26:00,SystemResetWarning,0819.7,4.99,000.00,022.1,021.5,000.0,030.2,023.8,09.2,0000.0,0001.73,0005.10,0000.83
2024-03-06 20:27:00,SystemResetWarning,0819.9,4.99,000.00,022.1,021.5,000.0,030.2,023.8,09.0,0000.0,0001.66,0006.89,0000.83
2024-03-06 20:28:00,SystemResetWarning,0820.0,5.01,000.00,022.1,021.5,000.0,030.3,023.8,09.1,0000.0,0001.66,0007.17,0000.82
2024-03-06 20:29:00,SystemResetWarning,0819.8,5.01,000.00,022.2,021.5,000.0,030.3,023.8,08.9,0000.0,0001.62,0007.09,0000.81
2024-03-06 20:30:00,SystemResetWarning,0819.7,5.01,000.00,022.2,021.5,000.0,030.3,023.8,09.0,0000.0,0001.59,0007.00,0000.81
2024-03-06 20:31:00,SystemResetWarning,0819.7,5.00,000.00,022.2,021.5,000.0,030.3,023.9,09.2,0000.0,0001.57,0006.54,0000.82
2024-03-06 20:32:00,SystemResetWarning,0819.7,5.00,000.00,022.2,021.6,000.0,030.3,023.9,09.7,0000.0,0001.58,0007.02,0000.82
2024-03-06 20:33:00,SystemResetWarning,0820.0,5.00,000.00,022.2,021.6,000.0,030.3,023.9,09.9,0000.0,0001.60,0007.05,0000.82
2024-03-06 20:34:00,SystemResetWarning,0819.9,5.00,000.00,022.2,021.6,000.0,030.3,023.9,09.9,0000.0,0001.71,0007.28,0000.84
2024-03-06 20:35:00,SystemResetWarning,0819.9,5.00,000.00,022.2,021.6,000.0,030.3,023.9,09.6,0000.0,0001.70,0007.09,0000.86
2024-03-06 20:36:00,SystemResetWarning,0819.6,5.01,000.00,022.2,021.6,000.0,030.3,023.9,09.3,0000.0,0001.79,0006.72,0000.91
2024-03-06 20:37:00,SystemResetWarning,0819.9,5.01,000.00,022.2,021.6,000.0,030.3,023.9,09.4,0000.0,0001.88,0006.72,0000.96
2024-03-06 20:38:00,SystemResetWarning,0819.7,4.99,000.00,022.2,021.6,000.0,030.3,023.9,09.4,0000.0,0001.92,0005.33,0000.99
2024-03-06 20:39:00,SystemResetWarning,0819.7,4.99,000.00,022.3,021.6,000.0,030.4,023.9,09.4,0000.0,0001.91,0004.83,0001.01
2024-03-06 20:40:00,SystemResetWarning,0819.5,5.00,000.00,022.3,021.6,000.0,030.4,023.9,09.4,0000.0,0001.90,0005.25,0001.02
2024-03-06 20:41:00,SystemResetWarning,0819.5,5.00,000.00,022.3,021.7,000.0,030.4,024.0,09.4,0000.0,0001.88,0005.20,0001.03
2024-03-06 20:42:00,SystemResetWarning,0819.5,5.00,000.00,022.3,021.7,000.0,030.4,024.0,09.5,0000.0,0001.92,0005.90,0001.02
2024-03-06 20:43:00,SystemResetWarning,0819.5,5.01,000.00,022.3,021.7,000.0,030.4,024.0,09.2,0000.0,0001.88,0005.39,0001.01
2024-03-06 20:44:00,SystemResetWarning,0819.5,5.00,000.00,022.3,021.7,000.0,030.4,024.0,09.0,0000.0,0001.85,0005.25,0001.01
2024-03-06 20:45:00,SystemResetWarning,0819.5,5.01,000.00,022.3,021.7,000.0,030.4,024.0,09.2,0000.0,0001.76,0004.99,0000.99
2024-03-06 20:46:00,SystemResetWarning,0819.5,5.00,000.00,022.3,021.7,000.0,030.4,024.0,09.6,0000.0,0001.76,0004.98,0000.97
2024-03-06 20:47:00,SystemResetWarning,0819.5,5.00,000.00,022.4,021.8,000.0,030.4,024.1,09.4,0000.0,0001.68,0005.33,0000.93
2024-03-06 20:48:00,SystemResetWarning,0819.4,5.00,000.00,022.4,021.8,000.0,030.4,024.1,09.3,0000.0,0001.63,0005.90,0000.87
2024-03-06 20:49:00,SystemResetWarning,0819.5,5.00,000.00,022.4,021.8,000.0,030.5,024.1,09.2,0000.0,0001.63,0005.77,0000.84
2024-03-06 20:50:00,SystemResetWarning,0819.5,5.00,000.00,022.4,021.8,000.0,030.5,024.1,09.2,0000.0,0001.67,0005.69,0000.84
2024-03-06 20:51:00,SystemResetWarning,0819.5,5.00,000.00,022.4,021.8,000.0,030.5,024.1,09.3,0000.0,0001.68,0005.21,0000.83
2024-03-06 20:52:00,SystemResetWarning,0819.4,5.00,000.00,022.4,021.8,000.0,030.5,024.1,09.0,0000.0,0001.67,0005.15,0000.83
2024-03-06 20:53:00,SystemResetWarning,0819.5,4.99,000.00,022.4,021.8,000.0,030.5,024.1,09.1,0000.0,0001.64,0004.50,0000.84
2024-03-06 20:54:00,SystemResetWarning,0819.8,4.99,000.00,022.5,021.8,000.0,030.5,024.2,09.0,0000.0,0001.66,0004.61,0000.85
2024-03-06 20:55:00,SystemResetWarning,0819.5,5.00,000.00,022.5,021.9,000.0,030.5,024.2,08.9,0000.0,0001.64,0006.08,0000.84
2024-03-06 20:56:00,SystemResetWarning,0819.5,5.01,000.00,022.5,021.9,000.0,030.5,024.2,09.0,0000.0,0001.65,0006.59,0000.85
2024-03-06 20:57:00,SystemResetWarning,0819.5,5.00,000.00,022.5,021.9,000.0,030.6,024.2,09.0,0000.0,0001.62,0006.61,0000.86
2024-03-06 20:58:00,SystemResetWarning,0819.3,5.01,000.00,022.5,021.9,000.0,030.6,024.2,09.2,0000.0,0001.58,0006.22,0000.86
2024-03-06 20:59:00,SystemResetWarning,0819.3,4.99,000.00,022.6,021.9,000.0,030.6,024.2,09.3,0000.0,0001.58,0005.61,0000.87
